GFSGBSN_925_spd_060.txt.gz
Wind_Speed
21 21 21 21 20 19 18 17 16 15 14 17 20 22 20 20 19 18 18 19 18 20 21 21 22 22 10 7 8 6 6 8 17 10 11 9 9 6 8 4 5 11 8 5 10 11 8
24 21 23 24 23 21 20 19 19 17 17 16 18 18 21 21 19 19 18 19 19 19 22 20 22 19 5 11 2 2 4 12 10 14 9 8 3 1 5 5 8 3 11 10 4 0 2
25 28 27 21 24 24 22 21 21 19 18 17 17 17 17 18 21 19 19 19 19 19 23 22 20 8 7 16 4 6 7 6 11 10 7 8 3 6 0 6 3 10 13 4 2 4 3
24 25 28 27 24 23 24 22 21 21 20 17 16 16 16 15 17 18 17 19 19 19 23 23 14 3 9 8 6 11 10 9 9 8 4 3 4 5 5 3 8 10 6 11 7 7 4
28 28 27 27 29 29 23 25 24 21 22 19 17 15 15 15 15 15 18 16 17 20 23 10 1 5 9 4 7 11 17 10 11 8 7 3 5 4 4 10 9 10 10 6 6 7 4
31 31 30 29 28 29 30 26 25 23 21 21 19 16 15 13 14 14 16 16 18 17 2 2 3 5 9 3 4 5 16 15 5 10 7 7 7 8 8 9 8 8 8 8 4 8 8
35 35 34 33 31 32 27 29 26 25 24 21 20 17 15 13 12 11 12 8 7 5 7 9 2 5 4 4 4 9 9 13 12 10 11 9 9 10 5 5 6 4 6 5 3 3 6
40 38 36 35 34 32 29 26 32 27 25 22 21 18 14 13 11 8 8 6 2 3 10 17 20 22 24 8 4 9 12 14 13 15 8 7 12 6 3 5 7 8 9 6 3 4 5
40 39 39 38 37 35 33 29 27 30 25 23 21 19 14 13 11 7 8 10 4 3 7 8 15 12 12 17 11 13 14 16 17 17 14 13 3 2 9 9 9 8 9 3 3 2 8
45 43 41 39 39 38 36 33 29 30 27 25 23 19 15 12 6 7 9 7 6 6 5 5 8 7 11 9 10 22 20 15 9 19 14 11 9 7 9 10 10 10 7 6 6 7 7
46 45 43 43 41 40 38 35 32 29 32 25 24 21 17 18 3 6 5 3 7 6 6 7 4 6 7 17 10 17 24 12 20 13 10 11 10 11 13 13 8 6 4 6 8 8 5
48 47 46 44 43 42 40 38 36 31 30 29 25 24 19 16 15 8 8 5 4 5 9 4 6 7 8 15 7 14 13 9 14 12 10 9 3 5 5 3 8 4 7 4 4 3 7
49 48 48 47 45 43 42 41 38 34 31 31 28 26 23 19 15 14 8 3 5 9 2 7 5 8 12 12 11 17 22 21 17 18 15 14 13 5 5 8 7 10 9 6 5 5 4
51 50 49 49 46 44 43 42 41 38 32 29 29 26 26 24 21 8 12 4 14 7 11 1 3 7 9 16 9 20 21 21 22 19 15 15 14 14 11 11 8 15 11 4 5 4 4
51 52 51 50 49 47 45 43 44 40 34 30 28 27 25 29 24 11 7 13 11 13 7 6 6 6 7 14 7 16 21 23 22 21 11 16 13 5 8 4 7 7 8 1 2 1 2
50 51 52 52 50 50 47 45 46 44 36 30 27 21 23 29 23 16 10 23 16 9 6 7 10 10 11 12 10 15 20 20 24 21 17 8 11 5 7 6 4 6 10 5 4 4 5
45 47 51 52 53 52 50 48 48 47 40 33 24 6 18 29 21 6 16 20 24 14 8 5 10 5 6 12 17 17 16 6 23 20 18 11 7 7 6 11 12 6 6 2 1 3 3
44 43 46 51 52 54 53 51 52 51 44 38 13 8 27 40 10 6 19 31 13 21 11 6 3 4 5 8 14 17 17 17 21 22 22 16 8 8 13 4 3 6 9 11 5 5 3
46 44 45 45 47 46 55 54 56 56 53 37 7 3 29 31 14 15 22 28 28 18 22 8 7 5 2 4 7 17 11 10 12 22 21 14 10 9 9 6 5 8 10 11 6 2 11
47 47 46 47 49 48 50 57 59 62 57 36 6 6 5 12 20 29 20 23 30 24 17 18 5 7 3 3 6 5 8 3 11 20 5 18 13 19 13 12 9 12 14 15 13 7 10
48 49 50 48 49 49 52 54 62 65 60 35 7 8 11 17 19 27 29 21 30 20 25 15 17 11 11 4 2 4 3 5 5 4 8 13 18 16 15 13 13 16 15 15 17 17 15
52 51 52 52 52 51 51 55 65 67 63 25 5 12 14 15 28 33 26 25 30 31 23 23 15 19 10 3 2 4 2 2 2 4 7 6 11 12 16 14 13 16 16 17 17 17 12
41 45 50 52 53 52 51 58 68 68 64 10 12 14 13 14 25 22 23 27 26 28 22 24 18 9 12 14 8 7 5 6 4 2 6 6 8 6 12 6 6 7 15 16 15 14 15
41 44 47 51 53 53 52 54 70 70 66 25 15 14 11 13 14 21 30 24 29 26 25 11 20 17 7 3 8 5 5 9 9 8 9 6 12 6 5 4 7 8 2 14 18 16 16
46 49 48 51 54 54 52 52 71 71 67 29 22 13 9 10 18 21 26 31 20 19 24 18 9 13 7 3 5 7 4 3 7 7 10 12 8 4 5 9 10 5 5 9 11 16 18
41 50 53 50 53 53 53 55 68 70 65 28 29 23 5 10 16 20 21 25 20 18 19 15 13 7 7 3 5 9 8 7 7 7 2 7 8 6 4 6 9 8 14 12 6 13 11
32 46 49 49 51 50 53 63 69 66 58 31 22 19 9 8 6 16 17 20 23 18 14 15 10 9 7 4 3 5 7 5 8 8 6 5 3 11 8 6 5 4 8 11 9 15 2
32 40 44 48 47 47 57 65 65 62 53 27 20 17 12 7 9 2 16 17 22 15 14 16 9 6 6 8 6 5 4 5 5 6 6 8 9 5 6 6 10 10 11 10 12 2 7
28 33 37 42 45 58 63 60 59 55 47 26 14 16 8 1 4 5 3 8 16 26 12 15 9 16 7 7 6 5 3 1 7 8 5 5 5 2 8 5 2 19 12 16 4 6 6

GFSGBSN_925_spd_063.txt.gz
Wind_Speed
20 18 16 17 18 19 20 19 17 17 16 17 18 19 20 19 19 18 18 17 18 20 21 23 24 26 14 8 14 1 8 8 12 12 14 12 13 13 14 8 7 11 13 10 9 12 10
20 23 23 22 19 19 20 20 19 19 18 18 19 19 18 18 19 18 18 19 20 19 20 21 23 23 13 14 5 4 4 9 14 16 15 14 12 10 10 10 10 7 9 14 12 13 7
21 21 21 24 26 24 18 21 21 20 20 18 18 18 19 17 17 17 19 20 19 19 19 20 22 14 14 21 9 7 7 11 14 16 13 13 10 9 5 10 12 11 14 18 12 13 13
24 24 23 24 21 27 26 20 20 21 20 20 18 19 18 18 16 16 17 17 17 17 19 19 19 11 10 15 11 15 13 13 11 13 11 8 9 12 10 11 11 15 16 17 8 10 8
28 29 29 26 26 26 22 28 24 21 22 21 20 18 18 18 17 16 17 17 16 19 19 15 6 7 14 6 15 20 18 18 15 12 11 6 11 14 11 12 14 16 16 8 12 12 6
29 30 29 29 28 29 26 22 28 26 23 22 21 20 18 18 17 16 17 17 14 19 9 8 11 7 12 10 8 12 21 20 17 12 12 12 9 13 13 13 13 11 14 14 8 8 8
31 31 31 32 31 31 28 27 26 27 26 22 22 20 19 16 17 15 13 12 7 7 18 10 5 14 4 7 6 12 20 21 17 15 17 18 13 15 17 11 12 11 11 9 8 5 7
36 35 35 35 35 31 30 29 27 25 27 28 23 21 19 16 16 15 9 6 6 6 11 19 24 22 27 6 6 14 22 18 18 20 19 13 16 17 5 4 7 11 13 12 3 3 6
40 39 37 36 33 32 32 32 30 27 25 27 24 22 18 15 15 16 15 14 6 7 8 14 22 26 24 22 17 17 21 23 21 21 20 17 13 10 6 10 9 11 14 2 2 17 13
42 41 41 39 37 36 34 32 32 30 28 24 24 21 17 11 11 17 17 13 12 4 7 12 8 9 20 16 14 29 27 23 14 22 21 19 12 8 12 13 11 13 11 8 10 10 8
43 43 43 42 41 38 37 35 33 32 30 24 25 21 19 18 9 8 4 11 9 4 7 6 10 6 8 20 8 23 26 22 24 20 16 17 17 13 14 13 11 14 5 7 11 12 15
45 45 44 44 43 41 40 38 36 33 32 26 24 21 20 17 18 20 4 7 12 7 15 8 8 10 13 21 19 6 28 23 19 19 19 20 13 16 19 15 7 6 7 10 11 11 11
48 47 47 46 45 43 41 39 37 34 34 29 26 24 23 20 17 20 17 6 7 13 3 13 8 11 15 13 20 15 29 26 22 21 22 20 14 14 7 10 9 11 13 9 8 3 8
49 49 49 48 46 45 43 41 39 37 34 32 27 24 27 26 21 13 15 8 16 16 30 5 4 11 13 12 17 20 22 24 25 27 14 18 20 21 14 16 12 16 16 7 8 6 2
50 50 50 49 48 46 45 43 41 39 36 33 27 23 26 30 25 19 4 14 22 27 13 28 7 12 12 12 11 20 25 26 27 25 18 18 21 22 15 14 14 12 15 9 7 2 3
50 50 49 50 50 48 46 44 42 41 38 35 28 24 29 30 28 13 6 22 24 24 25 17 22 14 12 15 12 16 22 25 26 28 24 10 15 11 14 8 11 8 10 8 7 4 8
49 48 48 49 49 50 48 46 45 44 41 38 27 7 18 27 26 6 9 24 33 23 12 17 18 20 13 13 18 18 17 11 28 28 22 12 14 13 12 16 15 12 10 9 4 7 5
44 45 46 46 47 50 50 48 48 48 47 43 15 10 20 34 11 12 19 26 31 33 18 15 11 19 11 13 17 9 22 22 16 21 25 21 12 12 17 16 20 13 18 17 9 11 7
41 40 41 40 41 42 48 50 51 52 56 37 7 5 24 37 14 17 31 33 28 30 26 20 14 11 12 9 10 18 9 10 8 24 24 19 11 13 16 10 9 12 13 13 14 11 11
39 41 42 43 43 44 45 52 54 57 62 39 6 7 6 14 21 31 31 27 30 30 29 21 16 8 9 10 10 6 16 8 6 14 14 18 15 17 15 16 15 18 17 18 16 9 12
42 45 45 46 46 46 46 47 59 61 67 39 8 8 10 14 25 30 29 27 33 32 32 22 21 18 12 8 10 11 10 6 5 6 7 19 21 19 20 17 13 16 20 20 20 19 17
47 47 48 49 49 49 47 47 56 66 72 26 8 12 13 10 25 32 27 32 34 31 30 30 22 22 17 10 7 9 6 7 8 11 14 19 16 21 19 19 18 13 16 18 19 18 17
50 49 49 49 50 50 50 51 54 61 72 8 15 21 14 16 28 23 25 31 31 30 31 28 28 18 20 10 4 3 6 3 5 3 14 16 14 16 17 19 19 18 18 18 18 17 15
36 46 48 49 52 55 55 54 54 57 70 25 27 18 7 13 18 26 29 32 35 31 29 27 23 22 9 6 3 3 5 3 9 9 8 13 16 11 7 2 12 11 16 19 21 20 16
35 38 41 44 48 59 57 55 55 56 65 39 24 17 8 9 19 20 28 26 29 27 21 26 17 19 9 4 5 4 2 6 8 12 10 10 11 10 8 11 13 15 8 12 15 16 16
33 38 41 40 41 48 54 54 54 54 61 47 32 27 9 11 15 22 20 24 20 21 21 25 20 10 8 6 8 8 8 13 9 5 8 10 11 9 6 14 17 12 16 11 14 13 17
32 37 45 41 45 47 53 54 55 53 63 37 30 28 9 10 5 15 15 21 24 20 17 18 20 12 13 9 9 9 12 15 16 15 6 6 6 13 11 8 8 10 13 11 11 11 9
7 38 46 44 46 47 50 51 53 65 62 33 27 27 15 6 11 4 14 16 17 20 15 15 11 11 10 10 8 6 4 11 12 15 12 10 9 5 8 9 11 6 9 13 14 14 7
22 35 45 44 46 49 49 52 52 64 61 33 22 22 15 2 4 6 2 13 5 26 15 11 13 15 8 9 6 6 4 1 8 11 11 8 10 9 9 5 6 14 11 17 9 8 6

GFSGBSN_925_spd_066.txt.gz
Wind_Speed
17 17 19 18 17 16 17 19 19 19 18 17 17 18 18 19 20 21 21 20 21 20 22 24 24 23 18 9 15 5 5 9 8 10 15 13 14 15 15 19 15 12 14 13 18 11 14
18 17 16 18 21 21 19 18 19 20 20 20 19 18 18 18 19 19 19 20 20 19 22 22 22 22 13 20 15 10 7 10 13 16 15 16 14 14 17 17 18 15 14 14 16 19 11
20 20 21 19 20 20 22 25 23 20 20 20 20 20 18 19 20 19 20 21 21 20 20 20 19 16 16 25 16 16 9 14 16 17 14 19 18 16 13 16 15 16 17 17 18 17 12
24 23 24 24 24 22 21 20 25 27 19 20 19 20 20 18 20 22 20 22 21 18 20 17 18 13 12 16 16 21 21 18 17 17 17 19 14 11 16 16 18 17 17 16 14 6 13
27 27 28 26 26 27 26 23 21 23 27 20 21 20 20 19 19 22 23 22 22 19 20 17 11 10 15 12 21 23 19 20 17 16 14 15 10 13 15 16 14 16 15 19 16 10 14
27 28 29 29 30 28 26 27 26 22 20 26 22 20 20 20 20 22 24 22 17 17 12 11 14 11 15 13 12 16 20 20 16 12 13 12 8 13 14 13 15 16 11 20 12 9 12
29 30 31 31 30 29 30 28 27 26 23 21 25 20 19 19 19 18 22 14 6 7 13 11 11 8 18 8 8 9 16 20 19 18 16 17 13 16 19 20 22 16 13 15 4 4 4
35 34 33 31 31 32 30 30 28 28 27 24 21 23 18 17 19 17 16 8 8 7 11 20 24 24 31 26 9 15 18 16 20 21 19 16 19 19 21 21 7 12 14 15 2 2 3
39 39 37 35 33 32 31 30 28 31 28 26 21 20 20 16 17 17 20 25 18 14 9 18 25 24 29 28 24 17 21 22 22 21 21 20 20 20 21 11 9 13 14 3 18 4 13
42 41 39 37 36 35 34 33 31 29 28 28 23 20 17 13 12 19 19 19 21 15 7 14 14 8 27 23 24 29 24 21 16 23 23 24 23 13 16 10 13 14 10 11 11 10 7
42 41 39 39 38 38 37 35 33 31 29 28 26 21 17 19 11 9 4 4 12 5 6 6 11 4 8 21 6 24 34 23 25 22 17 21 20 19 14 15 15 13 6 11 10 12 14
42 41 40 40 40 39 39 37 35 32 30 29 27 22 18 18 21 24 20 20 5 7 11 6 9 8 12 22 26 14 26 23 21 24 20 21 16 19 18 15 13 10 9 9 12 11 11
45 43 42 42 42 41 40 38 37 35 31 31 28 25 21 19 16 19 15 10 7 11 10 12 14 11 16 18 25 21 27 25 23 22 20 18 22 17 15 16 18 9 10 7 6 8 8
44 44 43 43 44 43 41 40 38 36 33 30 29 27 22 24 21 19 4 5 15 21 29 5 19 16 17 17 19 24 21 23 24 21 14 16 16 24 13 17 14 14 14 8 6 3 4
45 45 45 46 45 44 43 41 39 37 35 32 28 29 24 24 24 19 3 14 15 27 24 28 9 11 15 17 11 21 25 22 24 24 21 19 21 20 16 15 18 14 13 16 9 9 5
46 45 46 45 45 45 44 43 41 40 37 33 29 22 26 26 26 16 5 17 27 29 31 21 28 13 13 17 16 17 22 19 22 24 18 16 13 22 21 17 18 16 9 10 6 4 6
46 48 46 47 46 46 45 44 43 42 40 35 26 6 17 29 25 6 11 28 34 24 31 23 25 20 24 16 17 17 13 16 19 17 26 25 15 15 17 16 18 11 11 11 13 7 1
49 47 50 46 45 46 46 45 45 45 44 40 12 9 24 38 11 8 24 25 30 28 29 27 24 25 18 20 13 19 21 16 15 21 23 25 9 10 16 17 16 17 17 15 6 8 5
47 47 48 43 39 43 45 45 45 49 50 37 6 5 24 32 13 19 23 33 26 30 25 24 28 21 14 19 14 15 14 10 2 19 20 20 16 10 15 16 16 19 14 14 13 11 11
40 39 36 38 39 38 41 44 48 53 56 38 6 6 5 14 18 27 25 27 28 31 31 24 23 22 19 16 12 8 17 5 5 7 22 16 17 15 11 15 14 14 16 19 18 7 7
37 36 37 37 36 37 38 40 43 55 61 41 7 9 11 15 23 29 25 14 27 30 29 23 22 20 23 15 15 15 10 10 3 3 5 4 16 17 17 19 20 21 18 19 19 13 15
40 41 41 41 41 42 41 43 44 49 60 27 6 8 15 10 19 26 25 28 25 30 29 34 26 18 17 17 16 19 18 9 5 7 9 6 12 17 16 19 19 14 19 22 20 19 16
44 45 45 46 47 47 45 46 47 49 58 7 10 20 12 17 22 17 26 30 31 23 27 30 29 19 12 21 5 9 7 4 3 3 10 9 7 12 15 17 18 17 17 14 14 15 15
43 43 43 44 48 51 50 50 51 51 58 16 22 15 9 12 15 24 30 32 29 28 24 27 27 21 17 11 5 11 4 4 2 2 5 4 11 9 6 3 22 11 13 15 15 16 15
39 38 38 39 42 50 53 52 52 52 52 27 21 16 9 11 19 21 26 28 28 22 24 24 27 26 11 7 6 7 3 3 7 2 3 8 7 4 6 12 12 18 12 13 14 16 16
35 36 37 38 39 47 53 53 53 50 53 37 31 33 8 11 12 26 17 25 16 18 18 23 20 8 10 5 4 9 6 8 8 2 7 12 9 10 4 12 14 9 12 6 9 11 14
33 39 43 43 44 46 53 54 54 49 48 36 24 29 10 4 3 7 15 17 20 18 14 16 18 14 13 5 3 7 8 10 8 9 5 8 6 13 8 6 6 7 12 10 15 7 11
36 41 40 39 40 47 53 55 50 48 49 39 22 36 13 3 5 3 15 12 18 16 15 15 13 3 11 9 7 6 5 7 8 14 13 13 7 7 5 7 13 3 6 19 8 6 6
16 4 31 40 39 37 49 52 52 51 51 40 12 32 13 3 2 4 17 15 23 22 10 10 14 10 9 7 6 6 3 2 7 8 12 10 13 8 7 7 6 6 6 4 6 5 5

GFSGBSN_925_spd_069.txt.gz
Wind_Speed
15 16 16 15 16 18 17 17 17 16 17 17 17 17 17 19 21 20 21 21 21 22 21 20 21 23 16 5 11 24 10 7 8 7 10 7 8 6 9 7 9 9 11 8 10 10 8
19 17 17 18 16 17 16 18 22 22 18 18 19 19 18 17 19 22 22 23 23 22 21 20 19 19 4 13 14 14 20 10 11 11 9 14 7 9 11 11 7 11 13 9 8 9 9
20 19 20 21 21 18 19 19 19 20 23 19 19 19 18 18 19 21 25 25 25 24 21 18 15 13 9 25 15 15 17 16 16 16 10 19 23 8 7 10 9 11 12 10 8 11 10
23 23 22 24 23 22 23 23 22 21 20 22 20 18 18 20 20 21 25 28 28 26 22 19 14 9 9 22 18 25 22 22 20 19 24 23 21 9 4 6 9 8 9 6 12 11 12
25 24 24 26 26 25 26 25 24 22 21 20 21 21 18 19 20 22 25 31 32 27 19 16 11 7 10 15 12 23 29 17 21 22 21 17 13 5 4 5 6 5 10 13 19 17 6
25 25 26 27 28 27 27 25 26 24 24 22 21 20 20 18 19 21 25 33 24 21 12 7 11 6 9 5 8 16 19 24 9 7 6 5 3 4 3 2 9 8 9 11 7 1 6
26 27 27 28 29 29 28 27 26 25 25 24 22 19 19 19 17 18 22 15 3 1 6 10 11 7 11 11 24 6 18 13 6 5 10 6 4 13 13 13 17 16 18 8 5 5 7
30 30 29 29 29 29 27 26 26 26 26 24 24 21 19 17 17 14 15 4 11 8 11 18 21 21 29 20 9 17 12 10 8 14 10 8 18 15 16 16 17 18 12 9 2 7 2
34 33 32 31 31 30 28 28 27 26 25 23 24 22 19 16 13 19 17 26 26 27 6 11 21 18 20 21 15 22 8 10 11 12 16 15 12 18 19 18 18 12 5 7 6 5 7
36 36 36 35 33 33 31 30 28 26 26 24 22 24 19 12 8 19 10 12 19 21 5 8 9 10 16 10 10 26 20 12 8 16 17 14 19 19 19 20 14 5 10 10 4 4 3
39 39 38 37 36 34 32 31 29 28 27 25 24 21 20 14 8 9 1 21 24 6 4 7 6 11 9 18 7 10 34 9 18 18 12 14 16 22 21 19 11 9 5 1 5 5 4
42 41 40 39 36 34 33 32 31 29 28 26 25 22 20 16 19 28 25 24 18 4 10 7 6 8 8 21 8 5 13 14 3 14 10 19 13 15 20 8 7 8 2 3 3 1 4
44 43 41 39 37 36 35 33 33 31 30 27 24 25 22 19 11 16 14 4 5 6 7 9 5 9 9 9 17 9 11 13 11 14 18 18 19 21 12 9 8 6 2 2 4 2 5
45 43 41 39 38 36 36 35 34 33 31 27 25 25 25 22 25 18 10 2 12 16 26 8 2 13 9 8 16 15 9 15 16 10 5 13 14 18 8 13 7 6 8 5 5 3 3
45 42 41 40 40 39 38 37 36 33 31 29 25 26 24 25 25 18 3 8 16 14 15 21 17 9 9 11 6 14 15 14 18 18 13 11 11 2 12 6 9 5 6 7 6 2 4
43 43 43 42 41 40 39 38 36 35 33 30 28 18 23 29 23 15 8 26 15 23 16 11 7 11 4 10 9 13 9 10 14 21 21 4 6 13 21 8 9 7 4 3 3 4 3
44 44 43 43 42 42 41 40 38 36 34 33 24 4 14 32 25 7 19 21 18 18 19 9 12 14 19 17 11 7 7 10 15 17 19 16 7 11 9 13 14 5 9 4 6 6 5
46 46 45 44 44 42 43 41 40 39 37 38 11 6 25 36 11 10 22 26 13 14 14 17 16 20 18 18 15 15 11 9 10 7 21 17 3 12 17 18 18 14 10 8 4 5 4
45 45 44 44 43 43 42 43 42 42 42 33 6 4 25 34 14 20 18 24 24 18 19 11 12 10 15 16 9 3 10 7 9 11 11 8 5 7 11 15 16 17 7 10 8 4 6
44 43 44 43 44 43 42 41 43 43 45 37 6 6 5 14 15 19 20 20 20 18 20 22 16 18 21 15 14 6 7 1 4 8 17 10 9 16 14 10 6 4 7 9 8 4 4
35 35 35 34 35 35 37 39 38 41 46 41 6 6 8 15 24 20 19 11 23 18 24 11 11 21 18 13 6 3 4 6 7 5 6 9 15 17 16 17 18 19 14 15 16 11 7
37 37 36 37 37 37 37 39 42 44 49 33 5 5 8 1 14 22 20 24 22 24 14 28 22 17 12 14 7 5 8 5 7 7 7 8 6 10 16 14 18 14 15 14 12 8 5
41 41 40 40 39 40 40 40 42 45 50 16 9 17 10 16 15 16 28 27 21 16 22 19 19 15 17 17 6 1 2 10 6 6 10 6 5 6 12 14 15 6 18 13 14 11 10
44 44 44 44 44 44 43 44 46 47 49 13 11 10 3 9 13 21 19 21 22 21 19 14 19 17 24 2 5 4 7 11 14 10 5 6 6 2 4 1 15 6 10 13 15 7 5
42 41 45 43 43 45 46 47 49 49 49 32 14 12 6 4 20 12 20 22 21 21 18 20 18 17 4 1 2 2 3 3 8 5 7 1 5 3 9 10 7 8 4 5 6 8 5
42 39 37 38 41 42 44 47 51 50 47 40 16 29 6 3 13 20 19 18 15 19 18 20 12 7 6 4 2 5 5 7 6 3 1 0 5 4 2 5 14 2 6 9 4 5 5
37 41 40 39 40 41 43 48 51 51 46 37 15 32 6 8 3 18 15 16 16 14 13 8 6 4 3 3 6 4 4 4 7 10 4 2 1 5 2 2 6 6 8 5 5 6 6
31 34 39 41 42 43 43 44 49 50 45 42 16 36 15 7 4 4 5 8 11 14 12 3 4 4 2 5 6 4 4 6 4 4 7 5 5 3 3 5 13 6 3 7 6 8 6
23 28 34 47 48 44 45 42 46 48 45 41 9 36 32 3 4 5 7 6 4 1 4 8 5 3 3 4 5 4 3 1 6 3 4 5 6 5 7 4 6 7 5 3 1 1 4

GFSGBSN_925_spd_072.txt.gz
Wind_Speed
15 15 13 13 14 14 14 12 15 18 19 15 16 16 18 18 19 19 21 23 24 22 22 20 19 18 11 4 12 20 11 14 9 9 8 6 4 3 4 4 6 6 10 9 8 11 6
17 17 16 15 16 17 15 16 17 15 16 18 16 16 18 18 19 20 21 24 25 24 23 20 16 14 5 9 11 9 10 15 14 12 6 8 6 6 5 6 3 5 7 9 8 10 5
16 18 19 19 20 20 18 17 19 18 18 18 18 17 16 18 19 21 23 25 27 28 25 20 14 10 9 23 10 13 17 14 16 14 6 13 17 3 2 8 8 4 9 9 10 5 7
18 18 18 20 20 22 20 21 21 20 18 18 17 18 19 18 18 22 24 28 31 31 27 17 10 5 9 19 24 29 25 23 26 25 22 18 16 6 5 6 7 6 4 4 7 4 12
19 20 19 21 22 23 21 21 21 21 20 18 18 18 19 19 20 19 24 30 36 32 24 9 4 6 11 12 10 16 18 12 8 15 18 18 8 7 4 2 4 2 5 6 10 11 9
21 21 21 21 22 24 24 23 22 22 22 20 19 19 18 19 19 19 23 33 33 15 4 3 6 2 10 6 4 9 13 18 8 5 4 6 4 5 2 4 8 6 4 5 7 12 4
24 23 23 23 24 25 24 23 22 22 21 20 19 19 18 18 18 15 21 16 6 2 1 9 9 6 10 4 16 10 5 11 4 4 9 3 3 14 13 10 6 5 6 8 13 21 5
24 25 25 25 25 26 25 24 24 23 22 21 19 19 17 16 15 13 14 3 4 4 10 15 21 23 34 19 9 21 6 7 7 10 7 4 18 16 7 7 10 11 12 15 15 14 3
27 26 27 25 25 25 25 25 25 24 23 21 19 17 16 14 14 13 15 14 15 18 5 9 14 13 15 19 18 21 5 6 8 8 9 15 6 17 14 13 13 15 13 13 15 5 5
29 29 30 27 26 27 28 28 27 25 22 20 19 17 14 10 9 8 5 8 16 9 4 7 8 9 14 9 9 31 19 8 7 17 11 9 21 12 10 14 13 12 12 14 6 2 4
30 32 32 31 30 31 30 28 26 24 22 20 18 17 13 13 5 3 3 17 27 4 4 4 5 5 10 12 6 9 28 7 11 11 10 9 10 15 16 19 13 12 13 9 6 4 1
33 34 35 34 33 32 31 29 27 24 23 20 18 17 14 13 17 21 21 23 9 2 10 6 5 6 8 13 3 3 6 3 4 9 8 13 9 10 15 14 14 16 7 1 5 2 3
36 36 37 36 35 34 32 30 28 26 24 22 19 18 18 16 7 8 4 5 3 7 4 5 4 3 5 8 7 1 6 18 10 10 18 9 18 12 7 7 10 14 5 1 3 3 6
38 39 38 38 38 36 34 31 28 27 25 23 20 19 21 22 21 15 8 4 12 13 19 11 3 11 5 5 6 5 4 9 16 3 8 11 6 13 9 18 7 8 8 5 5 4 4
40 41 41 40 38 36 34 32 29 26 25 23 20 22 22 25 23 14 4 11 10 13 4 15 25 15 6 4 4 9 9 5 12 18 6 10 9 6 11 13 12 5 5 8 7 2 2
42 43 43 42 39 37 35 34 32 30 28 25 23 16 18 27 23 14 7 23 11 4 7 8 4 5 6 9 11 6 8 8 9 17 11 3 2 13 9 2 5 8 7 4 1 5 3
44 45 43 41 39 38 37 35 34 32 29 25 23 4 16 27 22 5 17 13 22 17 7 6 8 6 6 4 5 8 8 6 16 11 17 10 2 5 2 7 6 1 3 3 5 6 4
45 44 43 42 40 40 38 37 36 34 32 27 11 6 25 35 9 6 18 11 12 15 12 15 8 11 10 7 7 10 10 8 8 14 17 12 5 6 9 5 5 7 11 9 5 5 5
45 44 43 42 41 41 40 40 39 37 35 23 5 4 23 31 14 17 12 21 22 18 13 6 7 10 8 4 1 9 14 11 16 8 12 8 6 3 4 9 7 8 9 9 6 5 8
44 43 43 42 41 41 41 41 40 40 38 34 5 6 4 11 5 19 16 18 20 19 24 21 14 12 8 7 9 8 8 8 15 6 9 15 6 17 14 7 2 5 9 14 10 5 6
44 42 42 37 35 34 38 40 41 41 41 37 4 6 6 9 18 14 20 11 23 16 16 10 13 20 13 6 5 5 5 5 12 8 3 7 6 8 9 11 9 14 15 8 12 8 9
30 30 29 31 32 33 34 35 38 40 43 30 6 5 4 3 15 24 20 19 18 22 16 17 18 7 18 19 11 12 5 3 2 12 7 4 1 5 9 13 10 17 18 11 10 7 9
33 33 35 36 36 36 37 37 37 38 42 12 11 7 5 11 13 18 30 24 18 13 18 28 15 19 19 15 7 5 4 3 3 5 6 3 1 5 6 13 6 10 17 16 10 8 6
37 38 39 40 40 40 40 39 40 40 44 25 7 6 5 6 17 21 17 22 25 22 20 12 20 11 8 3 6 1 5 5 5 9 5 9 4 2 4 5 8 7 13 17 18 19 11
40 41 42 42 43 43 43 43 43 44 44 36 14 7 5 10 16 14 19 22 20 22 20 23 18 9 7 5 3 4 4 3 8 8 8 6 6 4 5 7 4 7 10 15 12 9 6
41 41 42 42 42 41 45 47 46 46 45 42 18 24 2 7 13 21 17 19 14 17 19 19 14 6 4 4 3 6 4 4 2 6 4 6 6 7 2 6 8 4 19 10 4 6 6
41 36 36 39 39 43 41 48 48 47 46 40 14 31 4 1 3 20 19 17 9 10 5 6 12 5 7 3 3 4 4 3 3 7 4 2 4 4 2 2 5 7 7 7 10 7 8
30 30 31 35 39 44 41 43 45 46 46 42 15 33 14 1 5 21 9 12 9 9 4 4 1 2 2 6 6 4 4 6 4 4 6 10 6 3 1 2 4 5 5 6 4 6 5
25 27 31 29 37 43 42 43 44 45 45 42 8 33 30 3 4 4 14 26 29 15 9 5 5 5 5 4 1 3 1 1 5 6 2 3 6 6 8 6 4 2 4 5 2 3 6

GFSGBSN_925_spd_075.txt.gz
Wind_Speed
13 12 12 14 13 12 12 13 14 14 14 13 15 18 16 19 20 18 19 21 22 24 24 23 20 17 10 4 11 11 8 10 10 9 9 5 5 5 5 3 1 4 6 6 8 11 7
14 14 14 16 17 16 14 14 15 16 17 16 17 17 17 17 18 19 21 23 25 24 24 24 18 14 3 6 6 6 4 6 9 12 6 7 6 6 3 4 5 4 5 9 7 10 4
16 15 16 17 18 18 17 17 17 18 17 16 16 16 19 19 20 19 20 25 27 27 25 24 16 8 8 21 8 8 10 15 8 9 3 8 8 3 2 3 3 4 8 7 6 5 6
17 17 17 17 18 19 17 18 18 18 17 18 17 17 19 20 19 21 23 26 28 30 29 23 12 5 9 16 20 27 24 21 21 17 18 17 12 4 4 3 6 4 1 3 3 3 5
17 18 18 18 19 18 19 19 20 20 18 19 18 18 18 19 20 21 23 28 33 35 29 13 4 5 11 11 11 12 16 8 10 10 16 16 5 7 2 3 3 2 4 6 10 4 3
20 19 19 19 19 20 20 20 20 20 18 17 17 19 19 17 19 22 26 29 28 10 3 8 4 2 10 5 5 8 9 10 3 7 3 6 4 3 3 4 7 6 5 5 6 6 6
23 22 21 20 20 20 20 20 20 20 20 19 17 16 17 15 16 19 25 13 6 3 3 7 7 6 7 7 9 4 6 5 4 4 9 5 4 16 15 9 3 4 3 5 8 15 3
24 24 23 23 22 22 21 20 22 21 20 19 20 17 15 13 13 17 16 1 2 2 11 14 19 21 34 17 10 16 4 6 5 7 8 3 12 14 6 8 9 6 5 10 11 18 4
25 24 24 24 23 22 23 21 22 23 21 21 19 17 14 11 12 14 6 6 9 9 6 9 11 11 14 16 14 22 5 3 6 8 12 14 7 10 15 7 8 8 10 8 11 7 5
26 26 25 24 23 23 23 23 23 24 22 22 20 17 13 7 8 4 3 4 18 7 4 6 7 8 8 9 8 28 17 9 6 15 6 8 10 7 6 10 11 11 11 13 9 3 5
27 27 26 25 25 25 26 25 25 23 20 20 18 16 14 12 4 2 1 9 21 3 5 3 3 3 8 12 1 5 16 6 12 7 8 8 9 18 17 14 9 12 7 9 9 6 3
29 28 27 27 28 28 27 26 25 24 22 22 19 17 14 11 18 15 12 14 5 1 9 6 3 4 7 5 5 4 4 2 6 5 6 8 4 9 11 19 13 6 4 4 1 3 3
30 30 29 30 31 30 29 28 27 25 24 22 20 18 18 14 5 10 3 3 2 6 5 3 3 4 3 3 5 2 6 14 7 12 16 4 11 3 3 7 7 5 3 3 2 1 5
33 33 33 32 32 31 30 30 29 26 25 22 20 19 21 23 18 9 2 1 11 5 9 4 7 17 5 2 5 4 6 8 11 4 5 12 5 15 8 16 6 8 9 5 5 4 4
35 35 34 34 33 32 32 31 29 27 25 22 19 21 19 24 23 15 3 9 7 4 4 4 7 3 3 3 3 4 6 6 12 9 7 6 7 5 9 7 17 5 5 10 6 3 2
37 37 37 36 35 34 34 33 30 27 25 21 20 13 15 25 26 15 4 17 9 1 6 5 2 2 3 5 6 10 3 3 5 18 2 3 3 8 4 8 11 10 8 4 1 5 4
39 40 39 39 39 38 36 34 31 28 25 23 20 4 16 32 26 6 12 11 14 13 4 3 2 4 3 4 1 2 6 9 2 3 15 9 2 6 6 6 8 4 4 2 4 4 6
42 42 43 42 42 39 37 34 31 29 26 25 8 5 28 38 7 4 14 12 12 12 11 12 4 8 9 5 4 4 8 4 14 5 6 9 6 10 10 3 3 5 6 6 5 3 1
45 45 44 43 42 40 38 35 33 31 29 13 4 3 22 29 10 12 12 15 16 12 11 3 4 9 5 4 4 7 6 5 11 7 5 6 6 1 5 5 5 5 5 4 4 3 8
44 45 45 43 41 39 38 36 35 35 33 30 3 5 4 7 4 19 17 10 20 11 16 7 6 4 7 4 4 5 8 5 5 13 17 6 5 15 17 3 5 4 1 1 6 6 5
43 41 40 37 37 37 38 37 36 36 35 31 4 5 5 8 16 13 21 11 17 17 15 14 12 18 11 6 8 7 10 7 9 13 7 4 9 5 12 13 5 3 3 1 5 13 13
39 30 26 25 23 34 39 38 41 38 36 25 5 4 4 2 14 21 17 20 19 19 15 15 10 6 13 22 20 8 6 4 3 6 6 7 5 3 8 10 12 16 10 7 5 9 5
30 30 29 29 29 29 30 30 30 31 37 11 13 6 4 10 13 16 25 19 21 16 12 18 14 16 14 14 14 15 11 12 7 4 2 4 5 3 4 5 4 8 9 17 6 6 6
32 32 33 33 33 33 34 34 34 36 36 25 10 7 4 7 14 19 18 25 20 22 17 9 20 16 15 9 7 13 13 16 12 12 7 6 2 0 2 4 5 4 10 18 14 15 14
34 35 36 37 37 37 38 39 39 38 39 33 13 9 7 9 10 16 18 21 20 17 17 17 13 8 7 5 4 7 4 3 10 16 13 10 3 1 3 4 4 1 4 6 7 14 10
37 37 38 40 42 42 42 41 41 42 40 38 26 21 3 9 13 14 18 16 12 15 15 18 11 6 5 4 4 5 4 3 3 2 7 7 5 5 3 4 5 5 13 6 1 5 5
39 39 40 39 41 42 43 43 43 45 42 34 18 30 4 2 4 14 14 13 8 10 4 4 11 7 6 2 2 4 5 4 4 2 4 4 2 6 4 4 7 8 5 6 4 6 10
36 33 34 32 34 36 39 44 43 45 46 41 26 31 8 1 2 6 15 12 10 13 7 5 4 2 3 7 3 4 3 6 2 3 1 4 5 3 3 3 6 4 1 5 4 3 2
29 28 30 30 31 34 37 42 45 44 48 44 12 30 21 3 1 5 18 31 31 24 12 8 8 6 6 4 3 2 1 1 5 3 2 3 6 4 6 5 5 4 2 2 2 2 4

GFSGBSN_925_spd_078.txt.gz
Wind_Speed
13 14 14 15 16 16 14 13 13 14 14 15 16 18 17 18 18 19 20 22 23 23 24 24 22 19 9 4 10 6 8 4 3 6 6 5 5 5 5 4 4 5 5 6 8 9 7
14 16 16 15 17 17 15 15 15 16 17 16 16 16 18 19 19 20 24 27 26 23 23 25 20 16 1 4 6 6 3 2 4 9 7 7 6 7 4 4 6 4 4 8 7 9 5
16 17 17 17 18 18 17 17 17 17 17 17 18 18 18 18 21 22 23 27 30 28 23 24 21 9 6 18 6 8 10 11 7 3 2 7 3 3 1 2 3 4 7 8 6 5 7
18 18 18 18 19 18 18 18 17 17 18 18 18 18 19 19 22 23 24 29 32 31 28 24 16 6 9 16 17 26 25 23 20 22 18 8 2 2 4 3 4 2 1 3 2 5 2
18 19 20 20 20 19 19 19 18 19 19 19 18 17 17 19 21 24 26 31 36 30 22 11 7 5 11 8 7 10 13 9 7 17 14 3 5 5 2 4 3 2 5 5 9 5 3
20 19 21 21 21 21 20 19 19 19 19 19 17 19 17 17 20 22 28 35 17 7 9 10 4 3 9 4 3 6 4 5 2 6 5 5 3 4 2 4 7 5 5 5 7 2 2
21 21 21 22 21 21 21 19 20 20 20 19 18 19 18 16 18 18 26 14 6 3 3 6 4 5 5 9 5 5 4 2 1 3 7 6 4 9 17 9 5 4 4 4 5 4 4
24 22 22 24 22 21 21 20 20 20 20 19 18 17 16 15 17 14 16 3 3 7 12 14 18 20 36 8 5 5 3 5 4 6 6 2 11 19 8 10 8 6 4 11 12 11 8
24 21 24 23 21 23 22 21 21 20 20 20 19 17 16 13 13 12 4 4 6 9 6 8 8 9 10 15 11 14 4 5 6 6 8 15 4 11 11 7 10 13 13 10 10 7 4
23 24 25 24 22 23 23 22 22 21 21 21 18 17 13 10 8 4 4 3 13 1 4 7 4 6 5 7 6 16 17 8 5 10 7 9 13 5 12 13 12 7 11 10 7 2 4
25 25 24 25 23 23 25 24 23 21 22 21 18 16 12 10 2 2 2 7 18 0 5 0 3 3 4 7 3 1 12 4 17 8 7 8 6 16 7 8 9 11 9 10 6 6 1
27 24 25 26 25 25 26 25 25 23 22 21 20 17 13 10 16 16 12 14 5 1 8 5 2 3 0 4 5 3 1 1 6 6 4 6 2 8 9 9 13 1 4 4 1 2 4
26 27 28 28 26 25 25 26 27 25 23 22 22 17 16 15 3 6 4 2 1 5 6 4 3 3 6 2 3 3 4 9 5 6 13 3 5 2 3 4 8 6 4 2 1 1 6
27 27 27 29 29 29 28 26 26 26 24 23 23 18 19 21 18 5 3 2 10 4 6 3 4 6 2 3 1 4 4 4 7 2 2 12 7 11 6 8 7 11 10 5 6 5 4
30 31 30 29 30 30 29 28 27 26 25 23 22 21 19 21 20 12 3 7 6 4 5 5 6 2 4 3 2 7 2 5 6 8 7 6 6 6 8 8 12 6 13 8 5 2 2
32 31 31 33 33 31 31 30 28 28 25 23 21 12 15 24 26 14 4 13 7 3 4 5 3 4 4 6 6 5 4 2 4 6 6 4 3 6 4 5 13 8 7 4 1 5 4
34 37 38 37 35 34 33 32 30 28 26 23 19 6 15 26 27 5 12 8 9 12 3 4 3 4 3 3 4 3 3 4 6 7 4 3 1 5 4 6 9 5 14 3 4 5 6
40 40 40 39 38 37 37 36 34 30 26 24 8 8 26 36 10 3 14 8 7 2 3 6 2 3 3 4 3 2 3 5 9 4 7 4 5 5 10 5 4 9 9 10 5 4 2
41 41 41 41 40 40 41 39 36 32 28 14 5 4 23 29 11 11 6 14 12 3 4 1 5 6 0 3 4 5 4 3 7 7 5 9 4 3 6 12 3 5 4 5 4 4 6
43 42 44 45 45 42 40 38 35 33 32 30 3 6 4 9 4 17 13 16 11 12 15 1 3 2 2 2 3 4 4 5 3 5 1 7 5 8 11 5 4 5 6 5 5 4 5
44 42 42 41 41 39 37 36 35 34 33 31 5 4 4 6 12 16 18 11 18 13 13 13 4 7 3 3 4 4 7 10 7 6 4 2 6 9 14 11 16 5 5 7 9 6 9
41 40 39 41 41 40 35 33 33 34 34 26 5 4 4 0 14 16 17 18 20 17 12 11 11 7 15 14 14 13 4 0 4 4 3 3 6 10 10 9 11 12 11 10 7 5 4
30 29 29 28 28 27 26 25 34 37 37 13 8 5 2 8 10 12 18 20 16 14 13 14 17 13 9 16 14 16 15 19 14 13 8 5 1 5 3 5 6 7 13 7 4 6 5
31 31 31 31 30 29 29 28 27 31 42 20 7 6 4 5 14 17 16 19 16 19 12 14 15 14 15 2 3 5 9 15 17 18 12 8 4 1 4 1 3 5 7 13 15 13 9
33 33 33 34 33 32 32 31 30 30 29 24 13 9 6 8 10 16 17 19 18 13 18 15 13 15 10 1 3 4 4 3 6 10 13 15 7 3 2 4 5 4 2 5 6 8 7
35 37 37 37 36 37 36 35 34 34 34 32 25 13 4 4 10 12 15 16 11 13 11 14 10 2 2 2 1 3 2 4 4 4 7 11 10 3 3 3 3 6 6 0 5 5 2
40 40 40 39 38 39 40 39 38 37 36 31 13 35 4 2 8 13 8 11 8 11 5 4 8 5 5 3 6 4 3 4 3 4 4 4 3 10 1 3 5 10 7 2 4 6 3
36 36 38 39 38 41 40 42 42 41 40 36 23 27 16 1 2 5 10 12 6 11 6 5 4 1 3 5 2 3 3 5 4 5 0 5 5 4 3 2 6 3 3 4 5 3 1
33 30 32 33 36 35 37 39 43 44 43 42 11 29 29 2 1 4 8 10 32 25 11 11 7 6 6 4 4 2 2 1 4 3 2 3 5 2 6 5 4 4 5 3 3 5 4

GFSGBSN_925_spd_081.txt.gz
Wind_Speed
13 13 12 14 14 15 15 15 15 14 16 16 16 15 17 17 18 18 20 21 22 23 23 22 20 22 8 4 10 9 9 3 1 11 7 5 5 5 6 6 6 6 6 8 10 5 7
14 15 15 15 16 15 15 17 17 16 17 18 18 19 19 20 19 21 22 23 22 22 22 20 18 16 2 5 7 8 4 1 5 7 4 6 5 6 4 5 8 5 7 10 7 7 6
17 16 16 16 17 15 14 17 17 18 16 17 19 18 20 21 23 24 25 25 26 28 24 21 14 8 6 17 6 8 8 5 5 3 3 5 3 3 4 3 4 3 8 10 11 13 10
17 18 16 17 19 18 16 17 17 17 18 18 19 18 19 20 22 25 26 27 30 30 28 18 9 6 9 15 13 20 23 23 20 25 18 10 1 3 3 2 1 2 2 5 2 2 2
17 18 18 18 20 19 16 18 19 19 19 19 19 18 18 19 21 24 25 28 31 19 13 5 7 7 11 7 5 7 11 9 4 11 15 2 4 4 3 7 5 3 9 8 8 4 3
17 19 17 17 18 19 19 19 19 21 19 19 20 19 19 19 21 23 25 30 14 1 11 12 3 3 8 2 4 1 4 6 3 9 6 5 4 5 3 8 13 9 7 5 9 1 2
20 20 20 20 20 20 18 19 19 19 20 20 20 20 19 19 19 20 24 11 5 1 2 6 5 5 5 7 6 3 6 3 4 3 7 6 9 14 27 15 4 7 7 9 6 4 2
19 21 23 20 17 18 18 18 20 18 19 20 20 19 19 18 17 17 15 2 5 6 12 15 20 21 25 6 5 5 5 6 5 6 7 4 15 19 5 10 13 10 7 18 11 8 7
21 23 24 20 18 19 18 19 20 19 21 20 20 19 17 16 15 14 6 4 4 12 6 7 5 7 7 16 10 11 3 4 6 9 15 14 5 14 12 9 12 16 18 16 14 6 9
24 27 25 21 18 18 18 20 20 21 21 20 18 17 15 11 9 5 4 2 7 1 4 5 4 6 4 6 7 14 16 7 5 14 9 12 14 7 16 17 16 17 12 15 14 7 7
23 23 25 22 20 19 23 22 20 21 21 20 19 16 14 8 4 2 2 6 14 1 5 1 3 3 5 6 7 2 10 6 19 6 6 6 6 17 11 12 15 14 6 12 16 12 7
27 26 26 25 20 20 22 22 23 22 21 22 20 18 13 9 14 15 12 12 5 2 8 2 3 3 3 6 3 2 3 2 4 11 6 4 1 7 10 13 16 3 8 1 1 3 7
29 28 25 22 22 20 20 20 20 23 23 23 21 19 14 11 3 6 4 2 2 5 3 2 2 1 5 1 1 2 4 8 4 6 10 10 14 3 3 6 7 7 5 2 3 5 8
25 28 25 21 20 21 22 23 23 23 22 22 21 19 19 16 18 2 3 2 10 2 3 3 3 3 2 3 1 3 4 5 6 3 2 10 7 16 9 9 8 15 11 5 7 5 6
30 28 24 23 26 24 22 23 23 23 22 21 19 19 15 21 20 16 3 7 4 4 3 4 3 3 3 4 2 4 2 2 2 7 6 4 5 4 7 9 16 7 11 15 4 2 3
29 29 29 27 28 22 22 24 23 22 22 20 13 9 15 20 22 12 4 11 6 1 3 3 1 4 2 5 4 5 2 3 4 4 6 3 4 6 4 7 12 9 11 6 8 7 11
30 27 28 28 28 30 29 27 25 24 22 19 12 4 8 24 24 5 12 9 6 7 2 4 3 2 2 3 3 1 2 1 6 7 6 4 1 3 3 5 13 9 10 4 6 7 8
30 32 33 34 33 32 30 27 27 25 23 19 5 6 12 28 10 3 9 10 5 1 3 5 1 1 2 2 1 1 3 1 5 2 5 8 3 6 11 3 2 12 18 18 7 5 5
35 37 36 35 35 33 32 31 29 29 26 9 4 6 11 26 11 15 2 6 13 5 5 4 8 5 2 1 2 2 4 3 4 7 5 7 3 3 3 10 6 7 7 14 17 5 14
39 38 39 38 37 37 35 35 34 33 32 28 4 5 5 10 5 15 17 6 7 12 7 1 1 2 3 2 4 3 3 4 7 9 7 8 4 6 5 8 11 6 8 10 16 10 15
40 39 38 37 38 38 38 37 38 38 36 32 7 5 6 6 14 11 15 11 14 10 12 10 6 6 3 2 2 6 8 11 9 14 7 4 8 10 16 19 20 21 15 14 16 17 12
35 36 35 34 35 33 31 32 33 34 35 29 5 4 2 6 9 19 21 19 19 16 11 12 10 10 14 15 16 14 8 5 4 4 6 5 2 3 10 15 19 21 21 19 15 11 8
30 28 26 25 23 22 21 20 30 37 35 13 14 6 3 8 7 10 10 19 20 14 14 14 16 9 11 19 16 17 12 12 10 10 9 4 2 3 6 10 18 12 21 18 17 14 10
28 28 28 27 25 23 24 24 22 23 38 23 6 5 3 4 12 13 13 16 17 21 14 15 11 13 4 7 2 6 6 12 13 16 13 7 4 3 6 7 4 5 3 10 17 14 12
30 31 30 28 27 27 26 26 27 27 25 32 11 7 7 9 7 12 15 16 12 11 15 13 16 13 3 5 3 4 4 3 11 17 18 16 7 4 2 2 5 12 3 2 5 8 8
30 32 31 32 32 29 31 29 29 31 31 26 15 18 2 6 13 10 14 16 11 10 7 11 7 6 8 3 2 3 2 3 3 2 12 15 14 5 2 3 3 9 3 4 1 4 0
34 36 36 36 36 36 34 34 32 32 33 28 9 25 2 4 6 13 12 10 8 11 4 4 10 7 7 3 3 4 4 3 3 4 3 8 8 12 8 5 6 8 4 5 2 3 1
35 36 36 34 31 37 36 36 37 35 35 35 22 21 10 1 3 8 11 10 8 11 6 6 4 4 4 6 4 4 3 5 4 6 1 5 8 5 6 5 5 4 4 3 3 4 2
37 35 34 33 32 34 34 37 39 39 38 38 11 27 24 2 2 4 5 8 31 25 9 11 7 6 6 3 4 3 3 2 3 3 1 3 4 3 6 5 2 3 6 5 2 6 3

GFSGBSN_925_spd_087.txt.gz
Wind_Speed
13 13 12 13 13 14 14 15 13 15 16 16 17 18 18 19 20 19 19 21 21 22 23 21 20 21 16 7 20 12 6 5 5 12 17 16 18 19 22 16 20 21 20 20 19 16 18
15 16 16 17 15 14 15 13 13 15 14 16 15 18 20 20 19 20 21 22 23 24 23 22 19 17 14 17 9 7 7 7 14 15 16 16 15 15 17 18 20 15 18 20 21 22 19
17 17 16 16 16 15 15 15 16 17 16 17 17 18 20 21 21 22 23 24 25 25 25 21 20 12 14 24 9 7 9 9 10 17 18 19 18 10 9 15 17 17 19 20 21 21 22
16 18 20 18 17 16 16 15 18 15 16 17 18 18 20 20 21 22 24 27 27 29 27 19 12 11 10 16 16 17 19 22 14 10 14 10 10 14 19 15 11 13 18 19 18 25 19
18 15 17 16 17 15 17 16 14 15 16 17 19 20 20 20 21 23 26 29 30 23 14 8 6 12 13 4 10 14 18 20 18 22 18 15 14 16 14 17 17 15 18 20 20 17 13
19 17 18 16 16 20 18 16 16 15 16 17 16 19 18 19 20 22 26 28 24 12 2 6 10 6 9 7 4 5 3 11 12 11 15 14 12 17 18 17 20 18 21 20 20 20 16
18 20 20 20 19 19 18 17 14 15 17 17 18 19 19 18 19 20 22 22 5 8 11 12 5 15 14 1 8 10 8 9 11 14 17 19 17 23 24 23 24 21 24 23 18 12 5
21 22 20 16 17 17 19 18 13 16 15 17 15 18 17 17 17 18 16 8 5 4 12 18 24 26 32 26 13 12 11 11 15 17 18 13 24 28 23 22 19 24 26 24 20 22 11
22 22 15 16 18 19 20 20 17 17 14 16 15 18 17 16 17 14 9 7 5 8 8 12 18 16 15 17 17 17 16 18 17 18 19 21 10 24 20 20 21 25 24 21 24 22 16
19 18 16 18 18 19 20 19 16 15 17 16 15 15 16 15 10 6 3 1 3 5 6 6 6 3 7 6 8 23 15 16 17 23 19 19 21 13 17 24 23 22 21 22 20 19 15
23 20 20 20 17 17 17 16 17 16 15 15 14 15 14 10 14 9 4 3 6 4 6 7 8 7 7 9 5 6 7 19 24 18 11 18 16 20 22 21 17 21 16 17 21 20 17
20 20 20 20 19 19 18 17 16 14 14 12 13 14 13 13 16 15 7 6 6 5 9 6 8 10 10 12 7 6 3 11 12 20 18 22 7 9 18 14 15 17 16 16 14 12 16
21 23 18 17 18 17 18 16 15 13 12 12 12 13 11 11 8 3 8 7 6 8 4 9 7 9 8 8 10 10 10 11 10 10 19 19 22 17 12 12 17 17 14 9 11 11 13
23 19 19 19 19 19 18 18 14 12 12 12 12 12 13 15 15 13 8 7 11 4 18 4 3 9 10 7 6 10 9 10 15 14 11 13 11 28 21 18 11 18 17 8 11 10 10
23 24 21 20 20 19 18 14 14 14 12 11 12 15 16 17 17 12 4 10 11 17 10 4 8 10 9 8 4 9 12 7 2 12 8 4 12 2 12 25 21 17 17 19 22 17 9
23 21 21 22 21 19 19 19 16 14 11 8 12 9 17 14 15 12 5 14 18 7 7 5 12 5 12 8 8 6 12 1 3 3 7 5 9 6 13 12 22 24 15 12 12 16 17
23 23 23 22 22 21 18 17 16 14 10 11 10 3 10 16 13 5 5 9 21 16 2 7 7 1 2 0 6 3 1 7 1 3 6 4 6 2 5 10 13 14 20 16 12 13 11
25 25 26 26 19 17 17 17 16 17 15 10 6 4 8 14 6 4 10 8 3 19 17 12 6 8 6 5 6 4 4 3 3 5 5 4 5 7 11 3 9 13 16 18 12 16 12
27 27 26 24 23 22 23 22 21 19 17 13 4 7 6 11 8 12 15 13 9 11 9 11 18 12 14 9 6 9 8 3 2 4 7 9 2 6 12 10 11 10 11 12 15 16 20
27 28 28 28 27 26 25 25 24 23 22 20 3 5 7 7 9 9 16 21 21 8 21 14 8 12 9 11 11 7 6 3 1 6 6 6 8 10 11 10 10 6 10 9 13 13 14
34 34 35 34 33 31 30 30 29 27 25 21 5 5 8 6 13 18 19 12 15 22 10 11 11 15 11 10 12 14 14 13 10 6 7 6 11 12 15 19 16 16 14 14 18 17 18
36 34 33 32 32 31 30 32 32 31 30 23 4 5 9 14 16 14 18 19 21 20 10 15 15 13 15 16 13 4 7 9 7 8 6 2 7 8 13 15 20 21 20 21 19 19 23
30 29 29 28 28 27 27 30 33 36 34 12 18 17 8 12 19 17 16 18 16 19 19 19 15 14 13 13 11 13 11 10 12 10 10 6 5 3 12 15 11 13 20 21 17 17 20
29 26 24 24 24 25 24 24 22 31 40 26 7 9 8 13 12 16 23 19 18 20 21 15 17 14 7 2 6 11 14 16 17 17 15 9 11 6 5 9 10 10 5 3 7 13 20
27 25 24 23 23 23 25 25 24 26 28 31 14 9 8 13 19 22 18 18 18 14 17 21 16 4 5 1 3 8 8 10 21 21 20 19 13 4 4 8 14 21 10 3 5 15 20
28 26 25 25 25 25 26 27 26 27 28 25 19 21 6 9 19 23 20 22 12 13 13 12 1 6 5 2 3 7 6 8 4 7 22 20 17 11 8 9 6 5 5 6 6 8 17
31 29 28 27 27 26 27 26 26 28 30 28 10 25 8 4 14 17 18 15 16 19 9 7 7 4 6 5 5 6 7 2 4 5 7 14 12 13 12 11 9 3 8 8 3 7 22
25 30 30 30 30 30 29 29 29 28 29 31 11 21 9 2 12 16 20 18 13 8 6 9 5 3 2 5 5 8 6 5 7 9 6 9 10 7 12 10 13 10 2 2 2 6 5
26 24 25 30 31 32 32 31 32 33 31 34 9 20 24 3 4 13 22 18 20 18 11 9 7 7 7 6 7 4 6 2 8 6 13 7 9 3 4 6 4 8 13 10 11 10 11

GFSGBSN_925_spd_093.txt.gz
Wind_Speed
15 15 15 16 15 17 16 15 16 16 14 15 16 17 18 19 21 21 21 22 24 24 24 24 23 22 13 3 12 15 18 15 5 6 9 8 9 8 13 9 12 17 17 17 18 14 13
17 17 16 17 19 17 17 18 17 17 16 16 16 17 18 20 22 24 26 22 24 25 25 24 22 18 5 9 14 11 9 13 8 11 12 12 8 11 10 10 15 15 15 18 12 12 11
18 18 18 18 19 18 20 19 19 18 18 17 17 17 19 21 22 25 27 27 26 27 26 24 19 10 7 25 9 20 20 16 12 17 7 19 20 8 6 8 15 15 15 17 13 8 6
19 19 18 19 21 20 18 18 18 17 19 19 18 18 19 20 23 26 29 30 30 29 26 23 11 7 9 20 20 25 21 19 17 20 22 22 18 4 3 6 10 7 8 11 4 9 8
20 20 20 20 22 23 21 19 19 18 18 19 19 19 20 20 23 28 29 33 34 30 25 15 6 7 10 12 8 17 16 16 16 18 19 18 10 3 5 3 4 4 10 16 9 8 10
20 20 20 21 24 22 22 23 21 19 19 20 18 19 19 19 21 26 29 32 33 17 6 6 9 6 10 6 7 2 5 19 6 6 5 6 3 3 1 3 11 8 10 10 11 10 16
25 23 23 24 24 24 24 22 20 18 18 18 17 18 20 20 21 24 27 18 4 2 5 8 9 7 11 11 13 5 8 7 5 4 7 6 5 10 12 11 11 12 13 15 12 10 13
24 25 25 24 22 22 20 19 19 21 20 19 17 16 17 21 23 23 21 3 7 5 9 15 21 26 36 27 14 22 22 6 7 9 7 7 19 14 14 13 15 18 19 20 17 12 13
22 22 22 21 19 20 19 19 20 19 19 19 16 13 16 19 22 18 8 14 15 13 5 12 16 14 18 18 19 30 7 11 13 12 12 15 7 20 17 18 18 18 16 13 13 4 4
22 22 25 24 24 24 23 24 21 17 17 14 13 12 12 18 14 14 6 9 11 12 4 7 7 7 12 8 8 24 26 12 9 17 13 16 13 19 16 21 17 17 14 17 18 2 4
21 22 18 17 19 20 21 20 22 18 20 16 14 11 10 11 18 8 9 16 16 3 5 6 7 7 7 11 2 2 18 16 21 17 8 15 6 7 10 8 9 11 11 14 4 2 4
18 19 19 20 16 21 20 18 17 16 18 18 13 11 10 10 15 17 20 20 7 1 8 5 6 6 8 11 5 3 1 2 4 14 16 14 10 6 7 7 12 2 3 2 3 3 7
19 19 20 21 17 15 17 18 17 17 17 14 13 10 10 10 6 13 19 5 1 5 9 1 2 11 15 12 12 9 8 6 6 4 8 9 18 15 9 7 8 2 4 2 2 4 6
19 18 19 20 18 16 18 18 17 18 18 12 10 12 15 17 17 12 13 4 8 6 10 17 19 17 16 15 14 14 11 7 13 7 1 7 4 14 16 15 8 8 7 4 6 4 3
19 19 18 19 17 14 14 15 15 13 15 7 11 16 17 19 13 13 2 4 3 5 4 16 20 8 9 8 6 13 13 11 11 16 7 4 6 2 7 18 14 7 9 11 8 7 2
19 19 18 19 17 16 16 16 15 13 13 8 11 12 21 20 15 11 3 8 7 10 15 13 6 9 8 12 12 5 11 4 10 1 5 4 2 7 9 8 12 10 5 6 5 4 10
20 20 19 17 17 16 15 14 15 13 12 10 7 3 11 7 14 3 6 7 11 15 15 9 7 6 9 8 13 10 8 4 8 4 4 6 0 5 3 1 6 7 11 4 4 2 3
19 18 19 18 18 17 14 14 10 9 7 7 4 2 10 17 3 2 7 4 8 15 15 9 5 8 4 9 6 8 8 6 0 9 3 3 1 2 3 6 7 4 14 14 7 7 8
20 20 20 19 19 20 17 15 11 8 7 0 2 4 12 4 4 7 5 11 16 17 16 6 4 3 12 2 5 6 6 8 6 3 1 5 4 3 6 0 11 6 2 6 8 8 14
21 21 21 21 21 19 17 14 14 13 14 11 2 3 3 4 2 5 7 10 14 14 16 12 8 7 16 6 12 8 9 8 8 4 5 4 1 2 1 3 4 10 13 7 7 4 7
24 25 25 25 24 23 21 20 19 16 15 12 2 4 4 2 4 8 8 9 13 8 7 8 4 7 7 5 13 14 8 4 5 5 4 1 1 3 8 7 11 12 13 15 8 9 8
27 29 27 23 21 22 23 24 23 21 15 15 3 2 3 6 9 7 7 15 15 14 5 8 10 13 7 8 15 13 9 5 4 6 5 5 3 5 6 8 9 12 14 13 11 11 10
27 26 23 21 20 20 18 21 25 26 22 7 9 6 2 5 4 3 4 6 10 14 11 11 10 5 9 12 10 5 6 3 2 2 4 4 3 4 3 7 8 6 8 11 14 12 7
26 24 24 23 21 20 20 19 22 28 31 19 8 6 1 7 7 9 11 14 15 16 12 5 2 2 3 8 15 6 7 6 5 7 6 3 2 1 3 5 2 5 8 11 6 13 12
26 27 24 23 22 22 19 18 19 25 30 26 18 9 3 7 9 13 14 13 13 14 11 10 10 6 4 4 3 5 3 2 8 16 14 10 4 1 2 2 6 9 5 5 7 8 10
29 27 26 24 24 24 23 20 19 22 26 32 24 23 4 2 11 12 10 11 7 10 8 6 4 6 4 2 2 1 2 3 3 4 16 11 6 4 1 3 3 2 11 11 11 3 9
29 27 25 25 24 21 23 23 21 22 23 22 9 30 5 3 6 9 9 8 3 5 5 5 1 3 2 2 1 2 3 4 4 4 6 9 5 9 5 3 5 7 1 3 3 2 9
28 26 27 23 19 20 21 24 23 23 25 29 14 23 17 3 5 6 9 10 7 4 2 3 4 1 1 2 3 3 2 3 3 9 7 5 6 4 3 2 6 13 6 5 4 8 9
27 30 27 23 22 19 20 26 25 25 25 30 9 24 25 4 3 6 19 25 16 5 4 3 1 3 4 2 3 2 2 2 2 3 3 1 5 4 6 4 3 9 11 8 8 5 6